Year,Month,Day,Hour,Minute,Value (Times are PST for temperature in C)
2013,08,07,00,00,19.10
2013,08,07,00,01,19.10
2013,08,07,00,02,19.10
2013,08,07,00,03,19.00
2013,08,07,00,04,19.00
2013,08,07,00,05,19.00
2013,08,07,00,06,19.00
2013,08,07,00,07,18.90
2013,08,07,00,08,18.90
2013,08,07,00,09,18.90
2013,08,07,00,10,18.90
2013,08,07,00,11,18.90
2013,08,07,00,12,18.90
2013,08,07,00,13,18.90
2013,08,07,00,14,18.90
2013,08,07,00,15,18.90
2013,08,07,00,16,18.90
2013,08,07,00,17,18.90
2013,08,07,00,18,18.90
2013,08,07,00,19,18.80
2013,08,07,00,20,18.80
2013,08,07,00,21,18.80
2013,08,07,00,22,18.80
2013,08,07,00,23,18.80
2013,08,07,00,24,18.80
2013,08,07,00,25,18.80
2013,08,07,00,26,18.80
2013,08,07,00,27,18.80
2013,08,07,00,28,18.70
2013,08,07,00,29,18.70
2013,08,07,00,30,18.70
2013,08,07,00,31,18.70
2013,08,07,00,32,18.70
2013,08,07,00,33,18.70
2013,08,07,00,34,18.60
2013,08,07,00,35,18.60
2013,08,07,00,36,18.60
2013,08,07,00,37,18.60
2013,08,07,00,38,18.60
2013,08,07,00,39,18.60
2013,08,07,00,40,18.60
2013,08,07,00,41,18.60
2013,08,07,00,42,18.50
2013,08,07,00,43,18.50
2013,08,07,00,44,18.50
2013,08,07,00,45,18.50
2013,08,07,00,46,18.40
2013,08,07,00,47,18.40
2013,08,07,00,48,18.40
2013,08,07,00,49,18.40
2013,08,07,00,50,18.40
2013,08,07,00,51,18.30
2013,08,07,00,52,18.30
2013,08,07,00,53,18.30
2013,08,07,00,54,18.30
2013,08,07,00,55,18.30
2013,08,07,00,56,18.30
2013,08,07,00,57,18.30
2013,08,07,00,58,18.30
2013,08,07,00,59,18.20
2013,08,07,01,00,18.20
2013,08,07,01,01,18.20
2013,08,07,01,02,18.20
2013,08,07,01,03,18.20
2013,08,07,01,04,18.20
2013,08,07,01,05,18.20
2013,08,07,01,06,18.10
2013,08,07,01,07,18.10
2013,08,07,01,08,18.10
2013,08,07,01,09,18.10
2013,08,07,01,10,18.10
2013,08,07,01,11,18.00
2013,08,07,01,12,18.00
2013,08,07,01,13,18.00
2013,08,07,01,14,17.90
2013,08,07,01,15,17.90
2013,08,07,01,16,17.90
2013,08,07,01,17,17.90
2013,08,07,01,18,17.90
2013,08,07,01,19,17.90
2013,08,07,01,20,17.90
2013,08,07,01,21,17.90
2013,08,07,01,22,17.90
2013,08,07,01,23,17.80
2013,08,07,01,24,17.80
2013,08,07,01,25,17.80
2013,08,07,01,26,17.80
2013,08,07,01,27,17.80
2013,08,07,01,28,17.80
2013,08,07,01,29,17.70
2013,08,07,01,30,17.70
2013,08,07,01,31,17.70
2013,08,07,01,32,17.70
2013,08,07,01,33,17.70
2013,08,07,01,34,17.70
2013,08,07,01,35,17.60
2013,08,07,01,36,17.60
2013,08,07,01,37,17.60
2013,08,07,01,38,17.60
2013,08,07,01,39,17.60
2013,08,07,01,40,17.60
2013,08,07,01,41,17.60
2013,08,07,01,42,17.60
2013,08,07,01,43,17.60
2013,08,07,01,44,17.60
2013,08,07,01,45,17.60
2013,08,07,01,46,17.60
2013,08,07,01,47,17.60
2013,08,07,01,48,17.60
2013,08,07,01,49,17.60
2013,08,07,01,50,17.60
2013,08,07,01,51,17.60
2013,08,07,01,52,17.60
2013,08,07,01,53,17.60
2013,08,07,01,54,17.60
2013,08,07,01,55,17.50
2013,08,07,01,56,17.50
2013,08,07,01,57,17.50
2013,08,07,01,58,17.50
2013,08,07,01,59,17.40
2013,08,07,02,00,17.40
2013,08,07,02,01,17.40
2013,08,07,02,02,17.40
2013,08,07,02,03,17.40
2013,08,07,02,04,17.40
2013,08,07,02,05,17.40
2013,08,07,02,06,17.40
2013,08,07,02,07,17.40
2013,08,07,02,08,17.40
2013,08,07,02,09,17.40
2013,08,07,02,10,17.40
2013,08,07,02,11,17.30
2013,08,07,02,12,17.30
2013,08,07,02,13,17.30
2013,08,07,02,14,17.30
2013,08,07,02,15,17.30
2013,08,07,02,16,17.30
2013,08,07,02,17,17.20
2013,08,07,02,18,17.20
2013,08,07,02,19,17.20
2013,08,07,02,20,17.20
2013,08,07,02,21,17.20
2013,08,07,02,22,17.20
2013,08,07,02,23,17.20
2013,08,07,02,24,17.20
2013,08,07,02,25,17.10
2013,08,07,02,26,17.10
2013,08,07,02,27,17.10
2013,08,07,02,28,17.10
2013,08,07,02,29,17.10
2013,08,07,02,30,17.10
2013,08,07,02,31,17.10
2013,08,07,02,32,17.10
2013,08,07,02,33,17.00
2013,08,07,02,34,17.00
2013,08,07,02,35,17.00
2013,08,07,02,36,17.00
2013,08,07,02,37,17.00
2013,08,07,02,38,17.00
2013,08,07,02,39,17.00
2013,08,07,02,40,17.00
2013,08,07,02,41,17.00
2013,08,07,02,42,16.90
2013,08,07,02,43,16.90
2013,08,07,02,44,16.90
2013,08,07,02,45,16.90
2013,08,07,02,46,16.90
2013,08,07,02,47,16.90
2013,08,07,02,48,16.90
2013,08,07,02,49,16.90
2013,08,07,02,50,16.90
2013,08,07,02,51,16.90
2013,08,07,02,52,16.80
2013,08,07,02,53,16.80
2013,08,07,02,54,16.80
2013,08,07,02,55,16.80
2013,08,07,02,56,16.80
2013,08,07,02,57,16.80
2013,08,07,02,58,16.80
2013,08,07,02,59,16.80
2013,08,07,03,00,16.80
2013,08,07,03,01,16.90
2013,08,07,03,02,16.90
2013,08,07,03,03,16.80
2013,08,07,03,04,16.80
2013,08,07,03,05,16.80
2013,08,07,03,06,16.80
2013,08,07,03,07,16.80
2013,08,07,03,08,16.80
2013,08,07,03,09,16.80
2013,08,07,03,10,16.80
2013,08,07,03,11,16.80
2013,08,07,03,12,16.70
2013,08,07,03,13,16.70
2013,08,07,03,14,16.70
2013,08,07,03,15,16.70
2013,08,07,03,16,16.70
2013,08,07,03,17,16.70
2013,08,07,03,18,16.70
2013,08,07,03,19,16.70
2013,08,07,03,20,16.70
2013,08,07,03,21,16.70
2013,08,07,03,22,16.60
2013,08,07,03,23,16.60
2013,08,07,03,24,16.60
2013,08,07,03,25,16.60
2013,08,07,03,26,16.60
2013,08,07,03,27,16.60
2013,08,07,03,28,16.60
2013,08,07,03,29,16.50
2013,08,07,03,30,16.50
2013,08,07,03,31,16.50
2013,08,07,03,32,16.50
2013,08,07,03,33,16.50
2013,08,07,03,34,16.50
2013,08,07,03,35,16.50
2013,08,07,03,36,16.50
2013,08,07,03,37,16.50
2013,08,07,03,38,16.40
2013,08,07,03,39,16.40
2013,08,07,03,40,16.40
2013,08,07,03,41,16.40
2013,08,07,03,42,16.40
2013,08,07,03,43,16.30
2013,08,07,03,44,16.30
2013,08,07,03,45,16.30
2013,08,07,03,46,16.20
2013,08,07,03,47,16.20
2013,08,07,03,48,16.20
2013,08,07,03,49,16.20
2013,08,07,03,50,16.20
2013,08,07,03,51,16.10
2013,08,07,03,52,16.10
2013,08,07,03,53,16.10
2013,08,07,03,54,16.10
2013,08,07,03,55,16.10
2013,08,07,03,56,16.10
2013,08,07,03,57,16.10
2013,08,07,03,58,16.10
2013,08,07,03,59,16.10
2013,08,07,04,00,16.10
2013,08,07,04,01,16.10
2013,08,07,04,02,16.10
2013,08,07,04,03,16.10
2013,08,07,04,04,16.10
2013,08,07,04,05,16.10
2013,08,07,04,06,16.10
2013,08,07,04,07,16.10
2013,08,07,04,08,16.10
2013,08,07,04,09,16.10
2013,08,07,04,10,16.10
2013,08,07,04,11,16.10
2013,08,07,04,12,16.10
2013,08,07,04,13,16.10
2013,08,07,04,14,16.10
2013,08,07,04,15,16.10
2013,08,07,04,16,16.10
2013,08,07,04,17,16.10
2013,08,07,04,18,16.10
2013,08,07,04,19,16.10
2013,08,07,04,20,16.10
2013,08,07,04,21,16.00
2013,08,07,04,22,16.00
2013,08,07,04,23,16.00
2013,08,07,04,24,16.00
2013,08,07,04,25,16.00
2013,08,07,04,26,16.00
2013,08,07,04,27,16.00
2013,08,07,04,28,16.00
2013,08,07,04,29,15.90
2013,08,07,04,30,15.90
2013,08,07,04,31,15.90
2013,08,07,04,32,15.90
2013,08,07,04,33,15.90
2013,08,07,04,34,15.80
2013,08,07,04,35,15.80
2013,08,07,04,36,15.80
2013,08,07,04,37,15.80
2013,08,07,04,38,15.80
2013,08,07,04,39,15.80
2013,08,07,04,40,15.80
2013,08,07,04,41,15.80
2013,08,07,04,42,15.80
2013,08,07,04,43,15.70
2013,08,07,04,44,15.70
2013,08,07,04,45,15.70
2013,08,07,04,46,15.70
2013,08,07,04,47,15.70
2013,08,07,04,48,15.60
2013,08,07,04,49,15.60
2013,08,07,04,50,15.60
2013,08,07,04,51,15.60
2013,08,07,04,52,15.60
2013,08,07,04,53,15.60
2013,08,07,04,54,15.60
2013,08,07,04,55,15.60
2013,08,07,04,56,15.60
2013,08,07,04,57,15.60
2013,08,07,04,58,15.60
2013,08,07,04,59,15.60
2013,08,07,05,00,15.60
2013,08,07,05,01,15.60
2013,08,07,05,02,15.50
2013,08,07,05,03,15.50
2013,08,07,05,04,15.50
2013,08,07,05,05,15.50
2013,08,07,05,06,15.40
2013,08,07,05,07,15.40
2013,08,07,05,08,15.40
2013,08,07,05,09,15.40
2013,08,07,05,10,15.40
2013,08,07,05,11,15.30
2013,08,07,05,12,15.30
2013,08,07,05,13,15.30
2013,08,07,05,14,15.20
2013,08,07,05,15,15.20
2013,08,07,05,16,15.20
2013,08,07,05,17,15.20
2013,08,07,05,18,15.10
2013,08,07,05,19,15.00
2013,08,07,05,20,15.00
2013,08,07,05,21,15.00
2013,08,07,05,22,15.00
2013,08,07,05,23,15.00
2013,08,07,05,24,15.00
2013,08,07,05,25,15.00
2013,08,07,05,26,15.00
2013,08,07,05,27,15.00
2013,08,07,05,28,15.00
2013,08,07,05,29,15.00
2013,08,07,05,30,15.00
2013,08,07,05,31,14.90
2013,08,07,05,32,14.90
2013,08,07,05,33,14.90
2013,08,07,05,34,14.80
2013,08,07,05,35,14.80
2013,08,07,05,36,14.80
2013,08,07,05,37,14.80
2013,08,07,05,38,14.70
2013,08,07,05,39,14.70
2013,08,07,05,40,14.70
2013,08,07,05,41,14.70
2013,08,07,05,42,14.70
2013,08,07,05,43,14.70
2013,08,07,05,44,14.70
2013,08,07,05,45,14.70
2013,08,07,05,46,14.70
2013,08,07,05,47,14.70
2013,08,07,05,48,14.70
2013,08,07,05,49,14.60
2013,08,07,05,50,14.70
2013,08,07,05,51,14.60
2013,08,07,05,52,14.60
2013,08,07,05,53,14.60
2013,08,07,05,54,14.60
2013,08,07,05,55,14.60
2013,08,07,05,56,14.60
2013,08,07,05,57,14.60
2013,08,07,05,58,14.60
2013,08,07,05,59,14.60
2013,08,07,06,00,14.60
2013,08,07,06,01,14.60
2013,08,07,06,02,14.60
2013,08,07,06,03,14.60
2013,08,07,06,04,14.60
2013,08,07,06,05,14.60
2013,08,07,06,06,14.60
2013,08,07,06,07,14.60
2013,08,07,06,08,14.60
2013,08,07,06,09,14.60
2013,08,07,06,10,14.60
2013,08,07,06,11,14.60
2013,08,07,06,12,14.60
2013,08,07,06,13,14.60
2013,08,07,06,14,14.60
2013,08,07,06,15,14.60
2013,08,07,06,16,14.60
2013,08,07,06,17,14.60
2013,08,07,06,18,14.60
2013,08,07,06,19,14.60
2013,08,07,06,20,14.60
2013,08,07,06,21,14.60
2013,08,07,06,22,14.50
2013,08,07,06,23,14.50
2013,08,07,06,24,14.50
2013,08,07,06,25,14.50
2013,08,07,06,26,14.50
2013,08,07,06,27,14.50
2013,08,07,06,28,14.50
2013,08,07,06,29,14.60
2013,08,07,06,30,14.60
2013,08,07,06,31,14.60
2013,08,07,06,32,14.60
2013,08,07,06,33,14.60
2013,08,07,06,34,14.60
2013,08,07,06,35,14.60
2013,08,07,06,36,14.60
2013,08,07,06,37,14.60
2013,08,07,06,38,14.70
2013,08,07,06,39,14.70
2013,08,07,06,40,14.70
2013,08,07,06,41,14.70
2013,08,07,06,42,14.70
2013,08,07,06,43,14.70
2013,08,07,06,44,14.70
2013,08,07,06,45,14.70
2013,08,07,06,46,14.80
2013,08,07,06,47,14.80
2013,08,07,06,48,14.80
2013,08,07,06,49,14.80
2013,08,07,06,50,14.80
2013,08,07,06,51,14.90
2013,08,07,06,52,14.90
2013,08,07,06,53,15.00
2013,08,07,06,54,15.00
2013,08,07,06,55,15.00
2013,08,07,06,56,15.00
2013,08,07,06,57,15.00
2013,08,07,06,58,15.00
2013,08,07,06,59,15.00
2013,08,07,07,00,15.00
2013,08,07,07,01,15.00
2013,08,07,07,02,15.00
2013,08,07,07,03,15.00
2013,08,07,07,04,15.00
2013,08,07,07,05,15.00
2013,08,07,07,06,15.00
2013,08,07,07,07,15.00
2013,08,07,07,08,15.10
2013,08,07,07,09,15.10
2013,08,07,07,10,15.10
2013,08,07,07,11,15.20
2013,08,07,07,12,15.20
2013,08,07,07,13,15.20
2013,08,07,07,14,15.30
2013,08,07,07,15,15.30
2013,08,07,07,16,15.30
2013,08,07,07,17,15.30
2013,08,07,07,18,15.30
2013,08,07,07,19,15.40
2013,08,07,07,20,15.40
2013,08,07,07,21,15.40
2013,08,07,07,22,15.40
2013,08,07,07,23,15.40
2013,08,07,07,24,15.40
2013,08,07,07,25,15.50
2013,08,07,07,26,15.50
2013,08,07,07,27,15.50
2013,08,07,07,28,15.50
2013,08,07,07,29,15.60
2013,08,07,07,30,15.60
2013,08,07,07,31,15.60
2013,08,07,07,32,15.70
2013,08,07,07,33,15.70
2013,08,07,07,34,15.70
2013,08,07,07,35,15.70
2013,08,07,07,36,15.80
2013,08,07,07,37,15.80
2013,08,07,07,38,15.80
2013,08,07,07,39,15.80
2013,08,07,07,40,15.80
2013,08,07,07,41,15.90
2013,08,07,07,42,15.90
2013,08,07,07,43,15.90
2013,08,07,07,44,15.90
2013,08,07,07,45,15.90
2013,08,07,07,46,16.00
2013,08,07,07,47,16.00
2013,08,07,07,48,16.00
2013,08,07,07,49,16.10
2013,08,07,07,50,16.10
2013,08,07,07,51,16.10
2013,08,07,07,52,16.20
2013,08,07,07,53,16.20
2013,08,07,07,54,16.20
2013,08,07,07,55,16.30
2013,08,07,07,56,16.30
2013,08,07,07,57,16.40
2013,08,07,07,58,16.40
2013,08,07,07,59,16.40
2013,08,07,08,00,16.50
2013,08,07,08,01,16.50
2013,08,07,08,02,16.50
2013,08,07,08,03,16.60
2013,08,07,08,04,16.60
2013,08,07,08,05,16.60
2013,08,07,08,06,16.70
2013,08,07,08,07,16.70
2013,08,07,08,08,16.70
2013,08,07,08,09,16.80
2013,08,07,08,10,16.80
2013,08,07,08,11,16.90
2013,08,07,08,12,16.90
2013,08,07,08,13,17.00
2013,08,07,08,14,17.00
2013,08,07,08,15,17.10
2013,08,07,08,16,17.10
2013,08,07,08,17,17.20
2013,08,07,08,18,17.20
2013,08,07,08,19,17.30
2013,08,07,08,20,17.30
2013,08,07,08,21,17.40
2013,08,07,08,22,17.40
2013,08,07,08,23,17.50
2013,08,07,08,24,17.60
2013,08,07,08,25,17.60
2013,08,07,08,26,17.70
2013,08,07,08,27,17.70
2013,08,07,08,28,17.80
2013,08,07,08,29,17.80
2013,08,07,08,30,17.90
2013,08,07,08,31,17.90
2013,08,07,08,32,18.00
2013,08,07,08,33,18.10
2013,08,07,08,34,18.10
2013,08,07,08,35,18.20
2013,08,07,08,36,18.20
2013,08,07,08,37,18.30
2013,08,07,08,38,18.30
2013,08,07,08,39,18.40
2013,08,07,08,40,18.50
2013,08,07,08,41,18.60
2013,08,07,08,42,18.60
2013,08,07,08,43,18.70
2013,08,07,08,44,18.70
2013,08,07,08,45,18.80
2013,08,07,08,46,18.90
2013,08,07,08,47,18.90
2013,08,07,08,48,19.00
2013,08,07,08,49,19.10
2013,08,07,08,50,19.10
2013,08,07,08,51,19.20
2013,08,07,08,52,19.30
2013,08,07,08,53,19.40
2013,08,07,08,54,19.40
2013,08,07,08,55,19.50
2013,08,07,08,56,19.60
2013,08,07,08,57,19.60
2013,08,07,08,58,19.70
2013,08,07,08,59,19.80
2013,08,07,09,00,19.80
2013,08,07,09,01,19.90
2013,08,07,09,02,20.00
2013,08,07,09,03,20.10
2013,08,07,09,04,20.20
2013,08,07,09,05,20.20
2013,08,07,09,06,20.30
2013,08,07,09,07,20.40
2013,08,07,09,08,20.50
2013,08,07,09,09,20.70
2013,08,07,09,10,20.80
2013,08,07,09,11,20.90
2013,08,07,09,12,21.00
2013,08,07,09,13,21.00
2013,08,07,09,14,21.10
2013,08,07,09,15,21.20
2013,08,07,09,16,21.30
2013,08,07,09,17,21.40
2013,08,07,09,18,21.50
2013,08,07,09,19,21.60
2013,08,07,09,20,21.60
2013,08,07,09,21,21.70
2013,08,07,09,22,21.80
2013,08,07,09,23,21.80
2013,08,07,09,24,21.80
2013,08,07,09,25,21.90
2013,08,07,09,26,22.00
2013,08,07,09,27,22.10
2013,08,07,09,28,22.20
2013,08,07,09,29,22.30
2013,08,07,09,30,22.30
2013,08,07,09,31,22.40
2013,08,07,09,32,22.40
2013,08,07,09,33,22.50
2013,08,07,09,34,22.50
2013,08,07,09,35,22.50
2013,08,07,09,36,22.50
2013,08,07,09,37,22.40
2013,08,07,09,38,22.40
2013,08,07,09,39,22.30
2013,08,07,09,40,22.30
2013,08,07,09,41,22.20
2013,08,07,09,42,22.20
2013,08,07,09,43,22.20
2013,08,07,09,44,22.20
2013,08,07,09,45,22.20
2013,08,07,09,46,22.20
2013,08,07,09,47,22.20
2013,08,07,09,48,22.20
2013,08,07,09,49,22.20
2013,08,07,09,50,22.20
2013,08,07,09,51,22.20
2013,08,07,09,52,22.30
2013,08,07,09,53,22.30
2013,08,07,09,54,22.30
2013,08,07,09,55,22.30
2013,08,07,09,56,22.40
2013,08,07,09,57,22.40
2013,08,07,09,58,22.50
2013,08,07,09,59,22.50
2013,08,07,10,00,22.50
2013,08,07,10,01,22.50
2013,08,07,10,02,22.50
2013,08,07,10,03,22.50
2013,08,07,10,04,22.60
2013,08,07,10,05,22.70
2013,08,07,10,06,22.70
2013,08,07,10,07,22.80
2013,08,07,10,08,22.80
2013,08,07,10,09,22.80
2013,08,07,10,10,22.90
2013,08,07,10,11,22.90
2013,08,07,10,12,22.90
2013,08,07,10,13,22.90
2013,08,07,10,14,22.90
2013,08,07,10,15,23.00
2013,08,07,10,16,23.00
2013,08,07,10,17,23.00
2013,08,07,10,18,23.10
2013,08,07,10,19,23.20
2013,08,07,10,20,23.20
2013,08,07,10,21,23.30
2013,08,07,10,22,23.40
2013,08,07,10,23,23.40
2013,08,07,10,24,23.50
2013,08,07,10,25,23.60
2013,08,07,10,26,23.70
2013,08,07,10,27,23.80
2013,08,07,10,28,23.90
2013,08,07,10,29,23.90
2013,08,07,10,30,24.00
2013,08,07,10,31,24.10
2013,08,07,10,32,24.20
2013,08,07,10,33,24.20
2013,08,07,10,34,24.30
2013,08,07,10,35,24.30
2013,08,07,10,36,24.40
2013,08,07,10,37,24.50
2013,08,07,10,38,24.60
2013,08,07,10,39,24.70
2013,08,07,10,40,24.70
2013,08,07,10,41,24.80
2013,08,07,10,42,24.90
2013,08,07,10,43,25.00
2013,08,07,10,44,25.10
2013,08,07,10,45,25.10
2013,08,07,10,46,25.20
2013,08,07,10,47,25.20
2013,08,07,10,48,25.20
2013,08,07,10,49,25.20
2013,08,07,10,50,25.20
2013,08,07,10,51,25.20
2013,08,07,10,52,25.20
2013,08,07,10,53,25.20
2013,08,07,10,54,25.20
2013,08,07,10,55,25.20
2013,08,07,10,56,25.20
2013,08,07,10,57,25.30
2013,08,07,10,58,25.30
2013,08,07,10,59,25.30
2013,08,07,11,00,25.30
2013,08,07,11,01,25.40
2013,08,07,11,02,25.40
2013,08,07,11,03,25.40
2013,08,07,11,04,25.50
2013,08,07,11,05,25.50
2013,08,07,11,06,25.50
2013,08,07,11,07,25.50
2013,08,07,11,08,25.60
2013,08,07,11,09,25.60
2013,08,07,11,10,25.60
2013,08,07,11,11,25.60
2013,08,07,11,12,25.60
2013,08,07,11,13,25.50
2013,08,07,11,14,25.50
2013,08,07,11,15,25.40
2013,08,07,11,16,25.40
2013,08,07,11,17,25.40
2013,08,07,11,18,25.40
2013,08,07,11,19,25.40
2013,08,07,11,20,25.40
2013,08,07,11,21,25.40
2013,08,07,11,22,25.50
2013,08,07,11,23,25.50
2013,08,07,11,24,25.60
2013,08,07,11,25,25.60
2013,08,07,11,26,25.60
2013,08,07,11,27,25.60
2013,08,07,11,28,25.60
2013,08,07,11,29,25.60
2013,08,07,11,30,25.70
2013,08,07,11,31,25.70
2013,08,07,11,32,25.70
2013,08,07,11,33,25.70
2013,08,07,11,34,25.70
2013,08,07,11,35,25.70
2013,08,07,11,36,25.70
2013,08,07,11,37,25.60
2013,08,07,11,38,25.60
2013,08,07,11,39,25.60
2013,08,07,11,40,25.70
2013,08,07,11,41,25.70
2013,08,07,11,42,25.70
2013,08,07,11,43,25.80
2013,08,07,11,44,25.80
2013,08,07,11,45,25.80
2013,08,07,11,46,25.80
2013,08,07,11,47,25.80
2013,08,07,11,48,25.90
2013,08,07,11,49,25.90
2013,08,07,11,50,25.90
2013,08,07,11,51,25.90
2013,08,07,11,52,25.90
2013,08,07,11,53,26.00
2013,08,07,11,54,26.00
2013,08,07,11,55,26.10
2013,08,07,11,56,26.10
2013,08,07,11,57,26.10
2013,08,07,11,58,26.00
2013,08,07,11,59,25.90
2013,08,07,12,00,25.90
2013,08,07,12,01,25.80
2013,08,07,12,02,25.70
2013,08,07,12,03,25.60
2013,08,07,12,04,25.50
2013,08,07,12,05,25.40
2013,08,07,12,06,25.40
2013,08,07,12,07,25.30
2013,08,07,12,08,25.30
2013,08,07,12,09,25.30
2013,08,07,12,10,25.30
2013,08,07,12,11,25.30
2013,08,07,12,12,25.30
2013,08,07,12,13,25.30
2013,08,07,12,14,25.40
2013,08,07,12,15,25.50
2013,08,07,12,16,25.60
2013,08,07,12,17,25.60
2013,08,07,12,18,25.60
2013,08,07,12,19,25.70
2013,08,07,12,20,25.70
2013,08,07,12,21,25.70
2013,08,07,12,22,25.70
2013,08,07,12,23,25.80
2013,08,07,12,24,25.80
2013,08,07,12,25,25.90
2013,08,07,12,26,25.90
2013,08,07,12,27,25.90
2013,08,07,12,28,25.90
2013,08,07,12,29,25.80
2013,08,07,12,30,25.70
2013,08,07,12,31,25.70
2013,08,07,12,32,25.70
2013,08,07,12,33,25.70
2013,08,07,12,34,25.70
2013,08,07,12,35,25.70
2013,08,07,12,36,25.80
2013,08,07,12,37,25.90
2013,08,07,12,38,25.90
2013,08,07,12,39,26.00
2013,08,07,12,40,26.10
2013,08,07,12,41,26.20
2013,08,07,12,42,26.30
2013,08,07,12,43,26.40
2013,08,07,12,44,26.50
2013,08,07,12,45,26.60
2013,08,07,12,46,26.60
2013,08,07,12,47,26.60
2013,08,07,12,48,26.60
2013,08,07,12,49,26.60
2013,08,07,12,50,26.60
2013,08,07,12,51,26.50
2013,08,07,12,52,26.40
2013,08,07,12,53,26.40
2013,08,07,12,54,26.40
2013,08,07,12,55,26.50
2013,08,07,12,56,26.50
2013,08,07,12,57,26.50
2013,08,07,12,58,26.50
2013,08,07,12,59,26.50
2013,08,07,13,00,26.50
2013,08,07,13,01,26.50
2013,08,07,13,02,26.50
2013,08,07,13,03,26.50
2013,08,07,13,04,26.40
2013,08,07,13,05,26.40
2013,08,07,13,06,26.30
2013,08,07,13,07,26.30
2013,08,07,13,08,26.40
2013,08,07,13,09,26.40
2013,08,07,13,10,26.50
2013,08,07,13,11,26.50
2013,08,07,13,12,26.60
2013,08,07,13,13,26.60
2013,08,07,13,14,26.50
2013,08,07,13,15,26.40
2013,08,07,13,16,26.30
2013,08,07,13,17,26.20
2013,08,07,13,18,26.10
2013,08,07,13,19,26.00
2013,08,07,13,20,25.90
2013,08,07,13,21,25.80
2013,08,07,13,22,25.70
2013,08,07,13,23,25.70
2013,08,07,13,24,25.60
2013,08,07,13,25,25.60
2013,08,07,13,26,25.50
2013,08,07,13,27,25.50
2013,08,07,13,28,25.50
2013,08,07,13,29,25.50
2013,08,07,13,30,25.50
2013,08,07,13,31,25.60
2013,08,07,13,32,25.60
2013,08,07,13,33,25.60
2013,08,07,13,34,25.60
2013,08,07,13,35,25.60
2013,08,07,13,36,25.60
2013,08,07,13,37,25.70
2013,08,07,13,38,25.70
2013,08,07,13,39,25.80
2013,08,07,13,40,25.90
2013,08,07,13,41,25.90
2013,08,07,13,42,25.90
2013,08,07,13,43,25.80
2013,08,07,13,44,25.70
2013,08,07,13,45,25.60
2013,08,07,13,46,25.60
2013,08,07,13,47,25.60
2013,08,07,13,48,25.60
2013,08,07,13,49,25.60
2013,08,07,13,50,25.70
2013,08,07,13,51,25.70
2013,08,07,13,52,25.80
2013,08,07,13,53,25.90
2013,08,07,13,54,26.00
2013,08,07,13,55,26.10
2013,08,07,13,56,26.20
2013,08,07,13,57,26.30
2013,08,07,13,58,26.30
2013,08,07,13,59,26.30
2013,08,07,14,00,26.20
2013,08,07,14,01,26.20
2013,08,07,14,02,26.00
2013,08,07,14,03,26.00
2013,08,07,14,04,25.90
2013,08,07,14,05,25.90
2013,08,07,14,06,25.90
2013,08,07,14,07,25.80
2013,08,07,14,08,25.80
2013,08,07,14,09,25.70
2013,08,07,14,10,25.60
2013,08,07,14,11,25.60
2013,08,07,14,12,25.60
2013,08,07,14,13,25.60
2013,08,07,14,14,25.70
2013,08,07,14,15,25.70
2013,08,07,14,16,25.80
2013,08,07,14,17,25.90
2013,08,07,14,18,25.90
2013,08,07,14,19,26.00
2013,08,07,14,20,26.00
2013,08,07,14,21,26.10
2013,08,07,14,22,26.20
2013,08,07,14,23,26.20
2013,08,07,14,24,26.30
2013,08,07,14,25,26.30
2013,08,07,14,26,26.40
2013,08,07,14,27,26.40
2013,08,07,14,28,26.50
2013,08,07,14,29,26.60
2013,08,07,14,30,26.60
2013,08,07,14,31,26.70
2013,08,07,14,32,26.80
2013,08,07,14,33,26.80
2013,08,07,14,34,26.90
2013,08,07,14,35,26.90
2013,08,07,14,36,26.90
2013,08,07,14,37,26.90
2013,08,07,14,38,27.00
2013,08,07,14,39,27.10
2013,08,07,14,40,27.20
2013,08,07,14,41,27.30
2013,08,07,14,42,27.40
2013,08,07,14,43,27.40
2013,08,07,14,44,27.30
2013,08,07,14,45,27.20
2013,08,07,14,46,27.20
2013,08,07,14,47,27.20
2013,08,07,14,48,27.20
2013,08,07,14,49,27.10
2013,08,07,14,50,27.10
2013,08,07,14,51,27.00
2013,08,07,14,52,27.10
2013,08,07,14,53,27.10
2013,08,07,14,54,27.10
2013,08,07,14,55,27.10
2013,08,07,14,56,27.10
2013,08,07,14,57,27.20
2013,08,07,14,58,27.20
2013,08,07,14,59,27.30
2013,08,07,15,00,27.30
2013,08,07,15,01,27.30
2013,08,07,15,02,27.30
2013,08,07,15,03,27.10
2013,08,07,15,04,27.00
2013,08,07,15,05,26.80
2013,08,07,15,06,26.70
2013,08,07,15,07,26.70
2013,08,07,15,08,26.60
2013,08,07,15,09,26.60
2013,08,07,15,10,26.50
2013,08,07,15,11,26.60
2013,08,07,15,12,26.70
2013,08,07,15,13,26.80
2013,08,07,15,14,26.80
2013,08,07,15,15,26.90
2013,08,07,15,16,27.00
2013,08,07,15,17,27.10
2013,08,07,15,18,27.20
2013,08,07,15,19,27.20
2013,08,07,15,20,27.30
2013,08,07,15,21,27.30
2013,08,07,15,22,27.30
2013,08,07,15,23,27.30
2013,08,07,15,24,27.20
2013,08,07,15,25,27.20
2013,08,07,15,26,27.10
2013,08,07,15,27,27.10
2013,08,07,15,28,27.00
2013,08,07,15,29,27.00
2013,08,07,15,30,26.90
2013,08,07,15,31,26.90
2013,08,07,15,32,26.80
2013,08,07,15,33,26.80
2013,08,07,15,34,26.70
2013,08,07,15,35,26.70
2013,08,07,15,36,26.70
2013,08,07,15,37,26.70
2013,08,07,15,38,26.60
2013,08,07,15,39,26.60
2013,08,07,15,40,26.60
2013,08,07,15,41,26.60
2013,08,07,15,42,26.60
2013,08,07,15,43,26.60
2013,08,07,15,44,26.60
2013,08,07,15,45,26.60
2013,08,07,15,46,26.60
2013,08,07,15,47,26.50
2013,08,07,15,48,26.50
2013,08,07,15,49,26.40
2013,08,07,15,50,26.40
2013,08,07,15,51,26.40
2013,08,07,15,52,26.40
2013,08,07,15,53,26.40
2013,08,07,15,54,26.40
2013,08,07,15,55,26.50
2013,08,07,15,56,26.50
2013,08,07,15,57,26.60
2013,08,07,15,58,26.70
2013,08,07,15,59,26.70
2013,08,07,16,00,26.70
2013,08,07,16,01,26.70
2013,08,07,16,02,26.70
2013,08,07,16,03,26.70
2013,08,07,16,04,26.80
2013,08,07,16,05,26.80
2013,08,07,16,06,26.80
2013,08,07,16,07,26.90
2013,08,07,16,08,26.80
2013,08,07,16,09,26.70
2013,08,07,16,10,26.70
2013,08,07,16,11,26.70
2013,08,07,16,12,26.60
2013,08,07,16,13,26.60
2013,08,07,16,14,26.60
2013,08,07,16,15,26.60
2013,08,07,16,16,26.60
2013,08,07,16,17,26.60
2013,08,07,16,18,26.70
2013,08,07,16,19,26.80
2013,08,07,16,20,26.90
2013,08,07,16,21,27.00
2013,08,07,16,22,27.10
2013,08,07,16,23,27.20
2013,08,07,16,24,27.30
2013,08,07,16,25,27.30
2013,08,07,16,26,27.40
2013,08,07,16,27,27.40
2013,08,07,16,28,27.50
2013,08,07,16,29,27.50
2013,08,07,16,30,27.50
2013,08,07,16,31,27.40
2013,08,07,16,32,27.40
2013,08,07,16,33,27.40
2013,08,07,16,34,27.30
2013,08,07,16,35,27.30
2013,08,07,16,36,27.30
2013,08,07,16,37,27.30
2013,08,07,16,38,27.30
2013,08,07,16,39,27.30
2013,08,07,16,40,27.30
2013,08,07,16,41,27.30
2013,08,07,16,42,27.20
2013,08,07,16,43,27.20
2013,08,07,16,44,27.30
2013,08,07,16,45,27.30
2013,08,07,16,46,27.30
2013,08,07,16,47,27.30
2013,08,07,16,48,27.30
2013,08,07,16,49,27.30
2013,08,07,16,50,27.40
2013,08,07,16,51,27.40
2013,08,07,16,52,27.40
2013,08,07,16,53,27.40
2013,08,07,16,54,27.40
2013,08,07,16,55,27.50
2013,08,07,16,56,27.50
2013,08,07,16,57,27.50
2013,08,07,16,58,27.60
2013,08,07,16,59,27.60
2013,08,07,17,00,27.70
2013,08,07,17,01,27.70
2013,08,07,17,02,27.70
2013,08,07,17,03,27.70
2013,08,07,17,04,27.70
2013,08,07,17,05,27.60
2013,08,07,17,06,27.60
2013,08,07,17,07,27.50
2013,08,07,17,08,27.50
2013,08,07,17,09,27.40
2013,08,07,17,10,27.40
2013,08,07,17,11,27.30
2013,08,07,17,12,27.30
2013,08,07,17,13,27.30
2013,08,07,17,14,27.30
2013,08,07,17,15,27.20
2013,08,07,17,16,27.20
2013,08,07,17,17,27.20
2013,08,07,17,18,27.30
2013,08,07,17,19,27.30